"Pseudo-MPEC" for P10OHy8

Created 2019 Jun 18 16:07:36 UT using Find_Orb

Click here for an explanation of pseudo-MPECs

 
 Astrometry: 
     P10OHy8  C2019 06 03Yg62=Yha)eMr`HSu338b?IYo1hrC(+0bBvZUeuAstrometry^*I0F51
     P10OHy8  C2019 06 03*/X]^EKv-jE@90bredacted;e.Dq-mogH4`ep#N(:fMebZ/aT#L=F51
     P10OHy8  C2019 06 03BZa9RH,!i.5,n.q1F%fsE)-.Db1pYT*tG]C.^fNre\D)GD*Ld#qmF51
     P10OHy8 KC2019 06 051lMkbclick`yGZG*WUBDKppj,ntSl$ZW[Q$F1pMW33VZnW%f`Il1J04
     P10OHy8 KC2019 06 05t\=hVK[4+lJ6ppADYTWih%!,+gF.Y1(OKLT`;_Reu5QC30QkT?JUJ04
     P10OHy8 KC2019 06 06%/vLV]LfKR@1mY=2/@H`c[Ko%4+4n:0@X@WYFx^yJFxgY--[GKprJ04
     P10OHy8 KC2019 06 06tQQ.\evPvUp.hq,pJPpr)cYd1^5]Xf5gHCDPtS!(urhVBl,8oXB2J04
     P10OHy8 KC2019 06 068`wvu[UaJvcJsbUmo0OE(=!J0abY@^EXEC.tXc6(9y,3;;Z1K0VSJ04
     P10OHy8 |C2019 06 06'1W7rtJ8XpJWmYR%BBahere\AmI7c)49XBACS2;M]T`-$q]#%ZEf807
     P10OHy8 |C2019 06 06pA3?XPHZela75:IPB`^\m=SG1L4Vl*QZIc0LwOhCj%X+(c'C!c6p807
     P10OHy8 |C2019 06 068?'d-818CE;-Ug*_/NO4`Zq#;:%X*wOBp0a$rF=WSLy71.?awZun807
     P10OHy8 KC2019 06 06]k.Il:x50cvheH*1?Eo0W#OrcGHG80=forb#W:8B#h0C6o./e'TZ711
     P10OHy8 KC2019 06 067e]@]8*+:+CKH+(Z@VWbfR5/a6;4''rGd+IX6G)_,1s,+OdGoy+M711
     P10OHy8  C2019 06 06.39209 20 55 28.92 -17 45 23.9    ~66A7 21.2 GVNEOCPI52
     P10OHy8 KC2019 06 06`_=Vtx7FFUd+YBB'fkTsw)7xxUx)]8CTn=S+cS;M^toZTu;@gomx711
     P10OHy8  C2019 06 06.39681 20 55 29.51 -17 45 19.4    ~66A7 21.3 GVNEOCPI52
     P10OHy8  C2019 06 06.40152 20 55 30.08 -17 45 16.3    ~66A7 21.9 GVNEOCPI52
     P10OHy8 ^C2019 06 14*w:nZQ-#_!@8a)E0^vZ*UexplanationZJvOnN1%p%_!2cah]SOg695
     P10OHy8 ^C2019 06 14yQQ]'1U1A55=e-2mdwrZVW\itCWXv`yOkPfrB]]1rvZfCDc;$@M:695
     P10OHy8  C2019 06 15.41138 21 15 46.79 -15 25 09.9    ~6FB7 21.9 GVNEOCPI52
     P10OHy8  C2019 06 15.41548 21 15 47.47 -15 25 05.3    ~6FB7 23.1 GVNEOCPI52
     P10OHy8  C2019 06 15.41756 21 15 47.66 -15 25 04.2    ~6FB7       VNEOCPI52
     P10OHy8  C2019 06 15.41965 21 15 47.91 -15 25 02.2    ~6FB7       VNEOCPI52

Station data:
(695) Kitt Peak  (N31.958398 W111.594670)  US/Arizona.
(711) McDonald Observatory, Fort Davis  (N30.671481 W104.021500)  US/Texas.
   0.76-m f/3.0 reflector.
(807) Cerro Tololo Observatory, La Serena  (S30.169136 W70.805900)  Chile.
(F51) Pan-STARRS 1, Haleakala  (N20.707235 W156.255910)  US/Hawaii.
   Observers N. Primak, A. Schultz, S. Watters, J. Thiel, T. Goggia. Measurer
   PS1 Science Consortium. 1.8-m Ritchey-Chrétien + CCD.
(I52) Steward Observatory, Mt. Lemmon Station  (N32.442547 W110.788920)
   US/Arizona.  Observers T. A. Pruyne, B. M. Africano, E. J. Christensen, G.
   A. Farneth, D. C. Fuls, A. R. Gibbs, A. D. Grauer, H. Groeller, J. A.
   Johnson, R. A. Kowalski, S. M. Larson, G. J. Leonard, R. L. Seaman, F. C.
   Shelly. 1.0-m reflector + CCD.
(J04) ESA Optical Ground Station, Tenerife  (N28.300924 W16.511830)  Canary
   Islands (Spain).  Observer D. Abreu. Measurers M. Micheli, D. Koschny, E.
   Schwab, M. Busch, A. Knöfel. 1.0-m f/4.4 reflector + CCD.

Orbital elements:  P10OHy8
   Perihelion 2019 Sep 5.126203 +/- 0.386 TT =  3:01:44 (JD 2458731.626203)
Epoch 2019 Jun 15.0 TT = JDT 2458649.5   Earth MOID: 0.1281   Ma: 0.0370
M 339.04050009 +/- 0.6              (J2000 ecliptic)          AutoNEOCP
n   0.25521087 +/- 0.00734          Peri.   73.09622 +/- 0.48
a   2.46151943 +/- 0.0472           Node   280.09964 +/- 0.09
e   0.5473362 +/- 0.00707           Incl.    3.93335 +/- 0.021
P   3.86                   H 20.4   G  0.15   U  9.4  
q 1.11424067 +/- 0.00412    Q 3.80879819 +/- 0.094
From 23 observations 2019 June 3-15; mean residual 0".43
Residuals in arcseconds: 
190603 F51  .16+  .11+    190606 807  .58+  .32-    190606 I52  .29-  .30-    
190603 F51  .45-  .01-    190606 807  .41+  .39-    190614 695  .66-  .53+    
190603 F51  .39-  .02+    190606 807  .03-  .01+    190614 695  .42-  .25-    
190605 J04  .52+  .16+    190606 711  .22-  .44+    190615 I52  .35-  .22+    
190605 J04  .32+  .44-    190606 711  .53-  .81+    190615 I52  1.5+  .57+    
190606 J04  .39+  .31-    190606 I52  .25+  .12-    190615 I52  .22+  .48-    
190606 J04  .01-  .16-    190606 711  .44-  .27+    190615 I52  .22-  .65-    
190606 J04  .01-  .43-    190606 I52  .11+  .49+    

Ephemerides (geocentric):
Date (UTC) HH   RA              Dec         delta   r     elong  mag " sig PA
---- -- -- --  -------------   -----------  ------ ------ -----  --- ---- ---
2019 06 18 16  21 23 27.148   -14 26 03.21  .56322 1.4342 128.2 21.3 1.66  32
2019 06 18 17  21 23 33.129   -14 25 16.00  .56280 1.4339 128.2 21.3 1.68  32
2019 06 18 18  21 23 39.113   -14 24 28.74  .56238 1.4336 128.2 21.3 1.71  32
2019 06 18 19  21 23 45.100   -14 23 41.43  .56196 1.4334 128.2 21.3 1.73  32
2019 06 18 20  21 23 51.088   -14 22 54.07  .56154 1.4331 128.2 21.3 1.76  32
2019 06 18 21  21 23 57.079   -14 22 06.66  .56112 1.4328 128.2 21.3 1.79  32
2019 06 18 22  21 24 03.072   -14 21 19.20  .56070 1.4325 128.3 21.3 1.81  32
2019 06 18 23  21 24 09.068   -14 20 31.69  .56028 1.4323 128.3 21.3 1.84  32
2019 06 19 00  21 24 15.065   -14 19 44.12  .55986 1.4320 128.3 21.3 1.87  32
2019 06 19 01  21 24 21.065   -14 18 56.50  .55944 1.4317 128.3 21.3 1.89  32
2019 06 19 02  21 24 27.068   -14 18 08.84  .55902 1.4314 128.3 21.3 1.92  33
2019 06 19 03  21 24 33.072   -14 17 21.12  .55860 1.4311 128.3 21.3 1.95  33
2019 06 19 04  21 24 39.079   -14 16 33.35  .55818 1.4309 128.3 21.3 1.98  33
2019 06 19 05  21 24 45.089   -14 15 45.53  .55776 1.4306 128.3 21.3 2.01  33
2019 06 19 06  21 24 51.100   -14 14 57.65  .55734 1.4303 128.4 21.3 2.04  33
2019 06 19 07  21 24 57.114   -14 14 09.73  .55692 1.4300 128.4 21.3 2.06  33
2019 06 19 08  21 25 03.130   -14 13 21.75  .55650 1.4298 128.4 21.3 2.09  33
2019 06 19 09  21 25 09.149   -14 12 33.72  .55608 1.4295 128.4 21.3 2.12  33
2019 06 19 10  21 25 15.170   -14 11 45.64  .55567 1.4292 128.4 21.3 2.15  33
2019 06 19 11  21 25 21.193   -14 10 57.51  .55525 1.4289 128.4 21.3 2.18  33
2019 06 19 12  21 25 27.219   -14 10 09.32  .55483 1.4287 128.4 21.3 2.21  33
2019 06 19 13  21 25 33.246   -14 09 21.08  .55441 1.4284 128.4 21.3 2.24  33
2019 06 19 14  21 25 39.277   -14 08 32.79  .55400 1.4281 128.5 21.3 2.27  33
2019 06 19 15  21 25 45.309   -14 07 44.45  .55358 1.4278 128.5 21.3 2.30  33
2019 06 19 16  21 25 51.344   -14 06 56.06  .55316 1.4275 128.5 21.3 2.34  33
2019 06 19 17  21 25 57.382   -14 06 07.61  .55275 1.4273 128.5 21.3 2.37  33
2019 06 19 18  21 26 03.421   -14 05 19.11  .55233 1.4270 128.5 21.3 2.40  33
2019 06 19 19  21 26 09.464   -14 04 30.56  .55192 1.4267 128.5 21.3 2.43  33
2019 06 19 20  21 26 15.508   -14 03 41.96  .55150 1.4264 128.5 21.3 2.46  33
2019 06 19 21  21 26 21.555   -14 02 53.30  .55108 1.4262 128.5 21.3 2.50  33
2019 06 19 22  21 26 27.604   -14 02 04.59  .55067 1.4259 128.6 21.3 2.53  33
2019 06 19 23  21 26 33.656   -14 01 15.83  .55025 1.4256 128.6 21.2 2.56  33
2019 06 20 00  21 26 39.710   -14 00 27.01  .54984 1.4253 128.6 21.2 2.59  34
2019 06 20 01  21 26 45.766   -13 59 38.15  .54943 1.4251 128.6 21.2 2.63  34
2019 06 20 02  21 26 51.825   -13 58 49.22  .54901 1.4248 128.6 21.2 2.66  34
2019 06 20 03  21 26 57.886   -13 58 00.25  .54860 1.4245 128.6 21.2 2.70  34
2019 06 20 04  21 27 03.950   -13 57 11.22  .54818 1.4242 128.6 21.2 2.73  34
2019 06 20 05  21 27 10.016   -13 56 22.14  .54777 1.4240 128.6 21.2 2.76  34
2019 06 20 06  21 27 16.084   -13 55 33.01  .54736 1.4237 128.6 21.2 2.80  34
2019 06 20 07  21 27 22.155   -13 54 43.82  .54694 1.4234 128.7 21.2 2.84  34
2019 06 20 08  21 27 28.228   -13 53 54.58  .54653 1.4231 128.7 21.2 2.87  34
2019 06 20 09  21 27 34.304   -13 53 05.29  .54612 1.4229 128.7 21.2 2.91  34
2019 06 20 10  21 27 40.382   -13 52 15.94  .54571 1.4226 128.7 21.2 2.94  34
2019 06 20 11  21 27 46.462   -13 51 26.54  .54529 1.4223 128.7 21.2 2.98  34
2019 06 20 12  21 27 52.545   -13 50 37.08  .54488 1.4220 128.7 21.2 3.02  34
2019 06 20 13  21 27 58.631   -13 49 47.57  .54447 1.4218 128.7 21.2 3.05  34
2019 06 20 14  21 28 04.719   -13 48 58.01  .54406 1.4215 128.7 21.2 3.09  34
2019 06 20 15  21 28 10.809   -13 48 08.39  .54365 1.4212 128.8 21.2 3.13  34